Tracking 27188 objects as of 1-Apr-2023
HD Live streaming from Space Station
objects crossing your sky now

SUPERBIRD A

Track SUPERBIRD A now!
SUPERBIRD A is classified as:


NORAD ID: 20040
Int'l Code: 1989-041A
Perigee: 35,909.5 km
Apogee: 35,976.4 km
Inclination: 13.5 °
Period: 1,443.7 minutes
Semi major axis: 42313 km
RCS: 4.409 m2 (large)
Launch date: June 5, 1989
Source: Japan (JPN)
Launch site: FRENCH GUIANA (FRGUI)
Your satellite tracking list
Your tracking list is empty




NASA's NSSDC Master Catalog

Two Line Element Set (TLE):
1 20040U 89041A   23090.27147618  .00000015  00000-0  00000+0 0  9993
2 20040  13.5322 340.7819 0007906  63.9958 126.6845  0.99742034122733
Source of the keplerian elements: AFSPC